Regional Weather Roundup
Issued by NWS

Home | Current Version | Previous Version | Graphics & Text | Print | Product List | Glossary On
Versions: 1 2 3 4 5 6 7 8 9 10 11 12 13 14 15 16 17 18 19 20 21 22 23 24 25 26 27 28 29 30 31 32 33 34 35 36 37 38 39 40 41 42 43 44 45 46 47 48 49 50
345
ASUS43 KLMK 010602
RWRKY
KENTUCKY REGIONAL WEATHER ROUNDUP
NATIONAL WEATHER SERVICE LOUISVILLE KY
200 AM EDT WED JUN 01 2016

NOTE "FAIR" INDICATES FEW OR NO CLOUDS BELOW 12,000 FEET
WITH NO SIGNIFICANT WEATHER AND/OR OBSTRUCTIONS TO VISIBILITY.

KYZ001>023-026-027-061>063-070>075-010700-
WESTERN AND SOUTH CENTRAL KENTUCKY

CITY           SKY/WX    TMP DP  RH WIND       PRES   REMARKS
PADUCAH        CLOUDY    73  66  78 W7        29.93R
HENDERSON      CLOUDY    73  64  73 CALM      29.91F
OWENSBORO      MOCLDY    72  67  84 SW3       29.93F
HOPKINSVILLE   PTCLDY    73  64  75 CALM      29.94R
BOWLING GREEN  CLOUDY    68  65  90 CALM      29.94F
GLASGOW        NOT AVBL
$$

KYZ024-025-028>034-038-045-046-053-010700-
NORTH CENTRAL KENTUCKY

CITY           SKY/WX    TMP DP  RH WIND       PRES   REMARKS
LOUISVILLE/SDF PTCLDY    72  59  63 CALM      29.94F
LOUISVILLE/LOU CLEAR     70  60  70 CALM      29.95F
FORT KNOX      PTCLDY    65  60  81 E2        29.93F
$$

KYZ035>037-039>044-047>052-055>060-089>105-010700-
NORTHEAST KENTUCKY

CITY           SKY/WX    TMP DP  RH WIND       PRES   REMARKS
LEXINGTON      CLEAR     66  60  81 CALM      29.98S
COVINGTON      CLEAR     68  60  75 CALM      29.98F
FRANKFORT      CLEAR     63  59  87 CALM      29.96F
$$

KYZ054-064>069-076>088-106>120-010700-
SOUTHEAST KENTUCKY

CITY           SKY/WX    TMP DP  RH WIND       PRES   REMARKS
JACKSON        CLEAR     72  56  57 CALM      30.00F
LONDON         CLEAR     65  61  87 CALM      29.99F
SOMERSET       NOT AVBL
MIDDLESBORO    NOT AVBL
MONTICELLO     CLEAR     62  61  96 W9        29.99F FOG
$$





USA.gov is the U.S. government's official web portal to all federal, state and local government web resources and services.